Temp
66 67 66 66 67 67 66 65 65 66 66 66 66 66 66 66 65 65 64 64 64 63 63 63 63 63 63 63 63 63 63 61 61 61 61 60 60 59 59 59 58 59
65 65 66 67 66 66 66 65 65 66 66 66 67 67 67 65 64 65 64 64 64 64 64 63 64 64 64 64 63 62 62 61 60 62 60 60 60 60 58 58 58 59
65 64 65 65 65 64 64 64 65 65 66 66 66 66 65 65 64 65 65 64 64 63 63 63 63 63 63 63 63 62 61 60 60 61 61 60 60 59 59 59 59 57
64 64 65 65 65 65 65 64 64 64 65 64 64 65 65 64 64 63 63 64 64 63 63 63 63 63 63 63 62 62 61 61 61 61 60 60 60 60 59 59 59 59
64 64 65 65 65 65 64 64 64 64 64 65 64 64 64 63 63 63 63 63 64 63 63 62 63 62 62 63 63 61 61 60 60 60 60 59 59 59 59 59 58 57
65 66 66 65 65 64 64 64 65 64 64 63 63 64 64 64 64 64 63 63 63 63 62 62 62 62 62 62 62 61 61 61 60 60 59 58 59 59 59 58 57 57
63 64 64 65 65 64 64 64 65 64 65 65 65 64 64 64 64 65 65 64 64 64 63 62 61 61 61 62 61 60 60 60 60 60 59 59 58 57 58 57 58 57
64 65 64 65 64 64 63 64 64 64 64 64 63 64 64 65 66 64 65 64 64 64 63 63 62 62 61 61 61 59 59 59 58 59 58 57 57 57 57 57 56 57
65 65 65 64 63 64 63 64 64 64 64 63 64 64 64 65 65 64 64 65 64 63 63 62 62 62 61 61 60 60 59 58 58 58 57 56 56 56 57 57 56 56
65 66 64 63 63 64 63 64 64 64 64 64 65 64 63 64 65 65 64 64 63 63 62 62 61 61 61 62 61 61 60 58 58 57 57 56 56 57 57 57 56 55
65 65 64 63 63 64 63 64 64 64 63 64 64 64 64 63 63 64 64 64 62 62 62 62 61 61 61 61 60 59 59 58 57 57 56 57 56 56 55 56 56 55
64 65 64 64 64 63 63 64 63 63 63 63 65 64 63 63 63 63 64 64 64 63 63 62 62 62 62 61 60 58 58 57 57 56 56 56 56 56 56 56 55 56
65 65 65 64 64 64 64 64 63 63 63 63 63 62 61 62 63 63 63 64 64 63 62 62 61 61 60 59 58 58 57 57 56 56 56 55 55 56 56 56 56 55
64 65 65 65 64 64 64 63 63 62 62 62 59 56 57 60 62 63 63 63 62 63 62 61 60 59 59 59 58 57 57 56 56 55 55 55 54 55 55 55 55 55
63 64 64 65 64 63 62 62 61 62 60 59 59 59 58 59 59 59 59 60 61 60 60 60 59 58 58 58 57 57 57 56 55 55 54 53 54 54 54 54 54 54
63 63 63 64 63 62 62 62 62 61 60 59 59 60 59 57 55 56 58 58 59 59 59 57 57 56 51 46 50 57 56 55 54 54 54 53 53 52 53 53 53 54
62 62 63 62 62 62 62 62 62 61 60 60 59 58 57 56 56 57 57 58 58 57 56 56 55 54 42 41 41 44 53 54 54 54 53 53 52 52 52 52 53 54
61 62 62 62 62 62 62 63 61 60 59 58 57 56 56 56 55 56 56 56 56 57 55 55 55 46 40 41 40 41 46 54 54 53 52 52 52 52 52 52 52 51
61 61 61 62 62 61 62 61 60 59 58 56 55 54 53 53 54 53 54 54 55 55 55 55 55 43 41 41 40 39 40 47 55 53 52 52 52 51 51 51 51 50
60 61 61 61 62 61 61 60 58 57 56 57 56 55 54 54 53 53 54 53 54 55 54 55 55 44 41 41 40 39 38 43 54 52 51 51 51 51 50 51 50 50
59 60 60 61 61 60 59 58 56 55 54 54 53 54 54 53 53 52 52 51 52 53 52 52 53 42 40 40 39 39 37 41 52 51 51 51 51 51 51 50 50 49
58 58 59 59 59 58 56 55 54 53 53 52 51 51 52 51 50 51 50 51 52 53 53 53 52 40 40 40 39 39 38 50 52 51 51 51 51 51 51 52 51 50
57 57 58 58 58 56 55 54 52 52 52 52 50 49 49 49 49 50 52 52 52 51 51 50 50 43 39 39 39 38 42 53 52 52 52 50 51 51 51 51 50 50
57 58 57 57 57 55 54 53 53 53 51 52 51 49 49 49 49 49 49 50 50 49 51 52 51 46 39 39 39 38 44 52 53 52 51 50 51 51 51 51 50 45
57 57 57 57 56 56 55 53 52 51 49 48 47 48 48 49 49 48 47 48 49 49 46 48 49 46 40 39 39 38 44 51 52 52 50 50 50 50 50 50 50 48
56 56 56 56 56 55 54 52 50 48 47 48 48 49 46 45 46 48 47 47 47 46 46 47 46 47 45 38 39 39 40 50 52 50 49 49 50 49 48 49 49 50
MSLP
1016.66 1016.78 1016.94 1017.14 1017.30 1017.42 1017.74 1018.02 1018.22 1018.34 1018.42 1018.50 1018.58 1018.74 1018.94 1019.10 1019.42 1019.58 1019.70 1019.82 1019.90 1019.98 1020.14 1020.26 1020.34 1020.46 1020.54 1020.62 1020.74 1020.82 1021.02 1021.22 1021.30 1021.38 1021.50 1021.54 1021.70 1021.78 1021.86 1021.94 1021.98 1021.94
1016.62 1016.82 1016.90 1017.02 1017.22 1017.50 1017.74 1017.90 1018.06 1018.18 1018.34 1018.42 1018.42 1018.58 1018.78 1019.06 1019.42 1019.54 1019.74 1019.86 1019.98 1020.06 1020.14 1020.22 1020.26 1020.34 1020.38 1020.46 1020.66 1020.82 1020.98 1021.14 1021.30 1021.34 1021.50 1021.58 1021.58 1021.70 1021.90 1021.98 1021.98 1021.98
1016.94 1017.02 1017.10 1017.14 1017.22 1017.42 1017.70 1017.98 1018.10 1018.18 1018.30 1018.34 1018.46 1018.58 1018.70 1018.90 1019.22 1019.42 1019.58 1019.74 1019.94 1020.14 1020.26 1020.30 1020.38 1020.38 1020.42 1020.46 1020.58 1020.74 1020.94 1021.10 1021.22 1021.30 1021.34 1021.50 1021.54 1021.58 1021.74 1021.74 1021.82 1021.94
1016.70 1016.86 1017.02 1017.14 1017.18 1017.30 1017.54 1017.86 1018.06 1018.14 1018.30 1018.50 1018.62 1018.66 1018.74 1018.90 1019.06 1019.30 1019.50 1019.66 1019.82 1020.06 1020.26 1020.38 1020.50 1020.54 1020.58 1020.62 1020.62 1020.78 1021.02 1021.10 1021.22 1021.26 1021.34 1021.42 1021.50 1021.54 1021.66 1021.62 1021.74 1021.70
1015.98 1016.26 1016.54 1016.74 1016.94 1017.18 1017.38 1017.62 1017.74 1017.86 1018.02 1018.22 1018.46 1018.70 1018.82 1019.06 1019.18 1019.30 1019.42 1019.58 1019.70 1019.94 1020.18 1020.38 1020.50 1020.66 1020.74 1020.74 1020.70 1020.86 1021.06 1021.22 1021.38 1021.34 1021.38 1021.50 1021.58 1021.66 1021.66 1021.62 1021.70 1021.74
1016.10 1016.22 1016.14 1016.26 1016.50 1016.82 1017.06 1017.14 1017.26 1017.46 1017.62 1017.90 1018.14 1018.38 1018.54 1018.74 1018.90 1019.06 1019.26 1019.42 1019.58 1019.78 1020.02 1020.22 1020.42 1020.58 1020.66 1020.78 1020.82 1020.94 1021.06 1021.22 1021.50 1021.50 1021.54 1021.62 1021.66 1021.70 1021.78 1021.78 1021.78 1021.78
1015.86 1015.70 1015.86 1015.94 1016.02 1016.22 1016.50 1016.62 1016.78 1017.02 1017.18 1017.30 1017.66 1017.94 1018.10 1018.42 1018.58 1018.70 1018.90 1019.10 1019.30 1019.54 1019.74 1020.02 1020.22 1020.46 1020.58 1020.70 1020.82 1021.02 1021.18 1021.38 1021.54 1021.58 1021.58 1021.66 1021.74 1021.78 1021.82 1021.86 1021.82 1021.82
1015.30 1015.26 1015.50 1015.62 1015.78 1015.90 1016.10 1016.22 1016.42 1016.66 1016.90 1017.14 1017.38 1017.54 1017.70 1017.90 1018.06 1018.30 1018.50 1018.74 1018.98 1019.18 1019.50 1019.78 1020.02 1020.26 1020.46 1020.54 1020.70 1021.02 1021.26 1021.42 1021.54 1021.62 1021.74 1021.82 1021.86 1021.86 1021.86 1021.90 1021.94 1021.82
1014.86 1014.90 1015.02 1015.30 1015.54 1015.62 1015.78 1015.90 1016.06 1016.30 1016.50 1016.78 1016.98 1017.18 1017.42 1017.50 1017.70 1017.98 1018.22 1018.42 1018.66 1018.94 1019.26 1019.58 1019.78 1020.06 1020.26 1020.34 1020.54 1020.74 1020.98 1021.30 1021.50 1021.66 1021.78 1021.86 1021.90 1021.90 1021.82 1021.86 1021.82 1021.78
1014.58 1014.54 1014.78 1015.06 1015.26 1015.34 1015.50 1015.62 1015.78 1016.06 1016.26 1016.46 1016.62 1016.86 1017.14 1017.34 1017.46 1017.70 1018.02 1018.26 1018.50 1018.78 1019.06 1019.34 1019.58 1019.86 1020.02 1020.10 1020.22 1020.42 1020.66 1020.98 1021.34 1021.58 1021.70 1021.82 1021.90 1021.86 1021.82 1021.82 1021.78 1021.74
1014.46 1014.46 1014.58 1014.74 1014.86 1014.98 1015.18 1015.46 1015.70 1015.90 1016.10 1016.26 1016.38 1016.66 1016.86 1017.14 1017.46 1017.58 1017.82 1018.02 1018.30 1018.54 1018.82 1019.10 1019.34 1019.54 1019.74 1019.94 1020.18 1020.38 1020.62 1020.86 1021.10 1021.30 1021.50 1021.62 1021.70 1021.78 1021.86 1021.78 1021.74 1021.70
1014.34 1014.34 1014.38 1014.50 1014.70 1014.90 1015.10 1015.34 1015.58 1015.74 1015.86 1015.94 1015.94 1016.10 1016.46 1016.90 1017.22 1017.50 1017.58 1017.78 1018.02 1018.30 1018.54 1018.86 1019.06 1019.26 1019.46 1019.74 1020.10 1020.38 1020.58 1020.78 1020.94 1021.10 1021.30 1021.42 1021.50 1021.58 1021.58 1021.62 1021.70 1021.62
1014.14 1014.06 1014.06 1014.26 1014.50 1014.66 1014.86 1015.10 1015.30 1015.50 1015.66 1015.78 1016.06 1016.34 1016.78 1017.02 1017.10 1017.26 1017.50 1017.58 1017.90 1018.18 1018.42 1018.66 1018.90 1019.14 1019.46 1019.82 1020.06 1020.26 1020.46 1020.62 1020.82 1020.90 1021.06 1021.22 1021.34 1021.38 1021.46 1021.54 1021.58 1021.58
1014.06 1013.94 1013.98 1014.06 1014.22 1014.42 1014.62 1014.82 1015.02 1015.26 1015.34 1015.54 1016.10 1016.50 1017.18 1017.02 1016.94 1017.02 1017.38 1017.62 1017.90 1018.06 1018.30 1018.58 1018.86 1019.14 1019.38 1019.66 1019.90 1020.18 1020.34 1020.54 1020.66 1020.82 1020.94 1021.06 1021.18 1021.22 1021.34 1021.46 1021.50 1021.46
1014.06 1013.94 1013.94 1013.98 1014.14 1014.30 1014.46 1014.62 1014.74 1014.90 1015.22 1015.62 1015.82 1015.78 1015.94 1016.34 1016.98 1017.42 1017.86 1017.98 1017.98 1017.98 1018.22 1018.42 1018.66 1018.98 1019.22 1019.46 1019.70 1020.02 1020.22 1020.42 1020.62 1020.78 1020.90 1020.98 1021.06 1021.06 1021.14 1021.22 1021.26 1021.30
1013.98 1013.86 1013.82 1013.82 1013.94 1014.06 1014.18 1014.30 1014.46 1014.62 1014.82 1015.14 1015.50 1015.66 1015.98 1016.34 1016.86 1017.34 1017.66 1017.86 1018.02 1018.10 1018.14 1018.38 1018.70 1019.02 1019.50 1019.70 1019.74 1019.78 1020.06 1020.34 1020.62 1020.70 1020.82 1020.90 1021.02 1021.02 1020.98 1020.98 1021.06 1021.06
1014.02 1013.78 1013.66 1013.70 1013.74 1013.86 1013.98 1014.10 1014.18 1014.38 1014.70 1014.98 1015.30 1015.62 1015.98 1016.18 1016.42 1016.86 1017.34 1017.62 1017.86 1018.10 1018.38 1018.58 1018.82 1019.26 1019.82 1019.98 1020.14 1020.26 1020.18 1020.38 1020.54 1020.70 1020.82 1020.86 1020.86 1020.90 1020.90 1020.86 1020.78 1020.78
1013.90 1013.66 1013.58 1013.46 1013.58 1013.66 1013.74 1013.82 1014.06 1014.38 1014.70 1014.98 1015.34 1015.66 1015.82 1016.14 1016.50 1016.90 1017.38 1017.74 1018.02 1018.26 1018.50 1018.70 1018.90 1019.50 1019.90 1020.14 1020.34 1020.46 1020.46 1020.38 1020.58 1020.70 1020.82 1020.78 1020.74 1020.78 1020.74 1020.74 1020.70 1020.62
1013.78 1013.58 1013.38 1013.30 1013.34 1013.42 1013.54 1013.78 1013.98 1014.30 1014.58 1014.98 1015.26 1015.46 1015.86 1016.10 1016.30 1016.74 1017.14 1017.46 1017.82 1018.26 1018.54 1018.66 1018.82 1019.42 1019.66 1019.98 1020.22 1020.42 1020.62 1020.62 1020.46 1020.70 1020.74 1020.66 1020.66 1020.70 1020.74 1020.74 1020.62 1020.54
1013.66 1013.42 1013.22 1013.14 1013.14 1013.26 1013.42 1013.66 1013.98 1014.26 1014.46 1014.70 1015.10 1015.58 1015.66 1015.86 1016.18 1016.50 1016.90 1017.38 1017.74 1018.06 1018.42 1018.62 1018.78 1019.26 1019.46 1019.78 1020.02 1020.34 1020.62 1020.74 1020.46 1020.66 1020.66 1020.66 1020.62 1020.62 1020.66 1020.62 1020.58 1020.42
1013.70 1013.38 1013.22 1013.02 1013.06 1013.22 1013.42 1013.66 1014.02 1014.34 1014.62 1014.86 1015.18 1015.30 1015.46 1015.78 1016.10 1016.50 1016.98 1017.38 1017.74 1018.14 1018.54 1018.90 1019.02 1019.30 1019.46 1019.66 1019.98 1020.26 1020.58 1020.70 1020.38 1020.54 1020.50 1020.46 1020.42 1020.42 1020.46 1020.46 1020.38 1020.30
1013.70 1013.46 1013.26 1013.14 1013.10 1013.22 1013.50 1013.74 1013.98 1014.26 1014.54 1014.94 1015.22 1015.46 1015.62 1015.86 1016.30 1016.50 1017.02 1017.42 1017.70 1017.98 1018.34 1018.74 1018.94 1019.18 1019.26 1019.54 1019.82 1020.06 1020.38 1020.26 1020.10 1020.26 1020.22 1020.18 1020.10 1020.06 1020.10 1020.10 1020.10 1020.06
1013.54 1013.38 1013.14 1012.98 1013.02 1013.22 1013.38 1013.62 1013.90 1014.18 1014.50 1014.78 1015.18 1015.42 1015.66 1015.90 1016.14 1016.50 1016.82 1017.18 1017.66 1018.06 1018.34 1018.62 1018.78 1019.02 1019.14 1019.38 1019.62 1019.86 1020.02 1019.66 1019.86 1019.82 1019.78 1019.82 1019.70 1019.70 1019.74 1019.78 1019.82 1019.82
1013.34 1013.18 1013.02 1012.90 1012.90 1013.02 1013.18 1013.42 1013.66 1013.94 1014.34 1014.54 1014.70 1015.14 1015.42 1015.50 1015.74 1016.22 1016.70 1017.10 1017.62 1018.10 1018.22 1018.30 1018.58 1018.90 1019.18 1019.38 1019.54 1019.70 1019.62 1019.46 1019.38 1019.38 1019.50 1019.46 1019.30 1019.34 1019.42 1019.42 1019.38 1019.54
1013.14 1012.98 1012.78 1012.62 1012.66 1012.70 1012.86 1013.26 1013.62 1013.94 1014.38 1014.82 1015.22 1015.46 1015.66 1015.86 1016.06 1016.46 1016.98 1017.42 1017.74 1017.98 1018.26 1018.26 1018.50 1018.78 1019.02 1019.18 1019.34 1019.50 1019.62 1019.34 1019.22 1019.18 1019.14 1019.02 1018.98 1018.98 1019.06 1019.02 1018.98 1018.94
1012.94 1012.78 1012.62 1012.46 1012.38 1012.50 1012.78 1013.10 1013.54 1014.14 1014.54 1014.82 1015.10 1015.22 1015.90 1016.66 1016.94 1016.98 1017.38 1017.78 1018.10 1018.30 1018.50 1018.46 1018.54 1018.74 1018.94 1019.14 1019.22 1019.30 1019.42 1019.26 1019.06 1019.02 1018.90 1018.78 1018.78 1018.82 1018.82 1018.66 1018.58 1018.42
Wind_Speed
7 6 7 6 6 5 7 7 7 7 6 6 6 7 7 7 8 7 7 6 7 7 7 7 7 7 7 8 8 7 7 7 6 6 7 6 6 6 6 6 6 5
7 6 5 5 4 4 4 5 7 7 7 7 6 6 6 7 7 7 7 7 7 7 7 7 7 7 7 7 8 7 6 6 6 4 6 6 5 5 5 5 4 4
4 5 6 7 6 6 6 5 5 5 6 6 5 5 6 7 8 7 7 8 7 7 7 7 7 7 7 7 7 6 6 6 6 5 5 5 4 4 4 3 3 3
7 7 6 6 5 6 5 6 5 5 4 4 6 5 5 5 7 8 7 8 8 8 7 7 7 6 6 6 7 6 6 5 5 4 4 4 4 4 3 2 3 2
11 9 8 7 6 5 5 6 7 7 7 6 5 5 5 6 6 7 7 7 7 8 7 7 6 6 6 5 5 6 5 5 4 3 4 4 3 3 2 2 3 2
5 6 9 9 8 8 7 9 9 8 8 8 8 7 7 8 8 8 8 8 7 8 8 7 7 6 5 5 5 5 5 4 4 3 4 3 3 2 2 2 1 2
9 11 11 9 9 10 9 9 8 8 8 8 8 8 8 9 9 10 10 9 9 9 9 8 8 7 6 5 5 5 5 4 3 3 3 3 3 3 2 2 2 2
11 10 9 9 10 9 10 9 9 8 8 8 9 9 9 10 11 9 9 10 10 10 9 8 8 8 7 6 6 7 6 4 3 3 3 3 3 4 4 2 3 3
11 11 10 10 10 9 10 10 9 9 9 10 9 9 9 9 10 10 10 11 10 10 10 9 9 9 7 7 7 7 6 5 4 3 3 3 3 4 4 4 4 4
11 10 10 10 10 10 10 10 9 8 9 10 9 8 9 8 9 10 10 11 11 11 10 10 10 9 8 7 7 7 6 6 5 3 2 1 2 3 4 4 5 5
11 10 10 11 11 9 10 9 9 8 8 10 9 9 9 8 8 9 10 11 10 12 11 10 10 9 8 7 6 6 6 5 4 3 1 1 1 2 2 4 4 5
10 10 11 11 10 9 9 8 8 8 9 9 10 12 10 9 10 9 10 11 11 11 11 10 9 8 8 7 7 6 5 4 3 2 1 1 2 3 4 4 5 6
10 11 9 9 9 9 7 8 9 9 9 9 7 3 5 7 8 10 9 10 10 10 10 10 9 8 8 7 6 6 5 4 2 1 1 1 2 4 4 5 6 6
10 9 9 8 7 7 8 8 8 9 10 8 6 9 8 9 10 11 8 8 9 9 9 8 9 8 8 7 6 5 4 3 2 1 2 2 3 4 4 5 6 6
9 9 9 8 7 7 8 9 10 10 8 8 12 12 10 9 6 6 6 7 8 9 9 8 8 7 6 6 6 5 3 3 2 2 2 2 3 4 4 5 5 6
7 8 8 9 8 9 9 10 9 10 10 11 10 9 8 8 9 8 9 9 9 9 9 8 7 5 6 8 5 4 4 3 2 1 1 1 2 3 4 5 5 6
6 7 7 9 9 9 9 10 10 9 9 9 9 9 11 11 10 11 9 9 9 9 9 7 6 6 9 9 8 5 4 3 2 1 0 1 2 4 5 6 6 7
6 6 8 9 9 9 10 10 8 8 9 9 9 11 9 8 9 9 8 8 8 8 8 7 6 9 10 9 8 7 3 2 2 0 1 1 2 4 5 6 7 7
7 7 7 8 9 9 8 8 8 9 9 10 11 9 9 10 10 10 9 9 9 10 8 8 8 11 10 10 9 8 6 3 2 1 1 2 3 4 5 6 7 7
9 8 8 7 8 8 8 8 8 9 9 10 9 10 11 10 11 12 11 10 9 9 8 7 8 11 11 10 9 8 7 5 2 2 2 2 3 4 4 6 7 7
9 8 9 8 7 7 7 7 8 7 9 8 8 11 11 11 11 11 9 8 8 7 7 6 6 11 10 10 9 8 8 5 2 2 2 3 3 4 5 6 7 7
9 9 8 9 8 7 7 8 8 10 10 8 7 6 6 8 7 9 10 9 8 8 8 8 7 12 10 10 9 8 8 4 3 3 3 3 4 4 5 6 6 7
9 9 8 9 8 8 8 9 9 9 7 8 9 8 10 10 10 9 9 9 9 8 7 6 6 9 10 10 9 8 6 3 3 3 4 4 5 5 6 6 6 7
9 9 9 10 10 9 9 8 8 7 8 8 11 11 10 9 9 8 7 8 8 7 7 7 6 7 9 8 8 9 6 3 3 4 5 6 6 6 6 7 8 11
10 9 9 10 11 10 8 9 9 8 7 7 7 5 5 5 5 7 7 6 6 6 6 6 5 7 10 9 9 8 6 4 4 5 6 6 6 7 7 7 8 9
9 9 9 11 12 9 7 7 6 7 8 8 8 9 10 9 6 6 7 5 4 4 5 5 4 4 7 9 9 8 8 5 4 5 7 7 7 8 9 9 9 10
Wind_Direction
189 194 193 191 197 189 172 171 178 178 182 175 176 170 170 156 154 151 142 137 133 129 127 124 120 115 109 101 97 95 94 93 87 85 82 79 75 69 62 55 50 42
197 200 207 200 194 184 187 181 174 180 182 183 184 170 161 152 156 153 148 142 139 133 134 131 126 122 115 106 105 102 100 100 98 98 94 87 84 82 73 70 65 48
220 217 218 214 204 191 189 188 185 185 187 188 173 172 163 160 157 157 152 148 141 137 138 133 129 125 120 117 114 107 106 107 101 99 96 92 87 86 86 80 71 64
202 211 224 233 225 204 185 182 191 186 185 178 187 185 172 162 157 156 153 153 145 144 141 140 136 131 126 122 116 106 107 100 99 102 100 95 86 83 77 78 68 64
191 193 204 216 219 211 190 195 194 190 182 189 176 171 171 164 162 161 161 157 150 145 145 142 138 131 129 121 113 110 107 100 98 90 84 86 79 68 61 48 48 42
194 212 202 199 203 199 200 201 199 190 183 181 183 175 181 174 171 168 165 161 157 149 146 145 142 136 131 123 114 107 106 97 95 88 84 76 75 69 58 37 24 13
196 213 211 206 199 196 202 202 197 190 191 185 172 183 174 175 176 173 170 167 160 157 154 152 148 146 142 136 123 116 106 103 99 73 57 61 48 62 62 33 14 341
212 219 207 206 206 202 204 203 195 193 189 179 186 185 178 180 179 171 170 168 164 160 158 156 156 152 151 147 139 132 127 123 106 76 46 44 29 23 22 20 350 341
214 217 210 209 209 209 208 206 200 194 183 186 192 183 184 184 177 171 171 170 165 162 161 161 161 157 156 152 143 139 134 128 118 95 60 33 18 10 357 353 341 338
220 223 214 212 213 214 213 209 200 195 190 194 194 180 181 184 176 172 169 169 165 164 164 162 162 157 158 154 145 138 130 122 120 113 99 65 13 352 344 337 335 327
227 227 223 217 217 216 213 209 204 197 191 197 189 186 186 173 175 173 170 170 167 167 165 163 162 159 154 147 136 126 118 117 114 107 92 17 339 325 311 316 315 310
233 234 233 231 227 224 217 213 207 203 198 200 193 189 178 176 174 176 176 172 169 165 163 161 159 157 149 137 129 123 118 113 111 105 68 334 319 314 316 311 304 303
238 238 235 230 226 223 211 206 206 204 201 204 195 167 139 179 181 176 176 170 164 159 158 155 150 141 131 126 123 118 113 109 103 85 351 329 321 322 315 309 302 299
256 254 250 241 228 216 210 204 201 199 202 185 138 142 183 202 186 178 165 158 154 156 149 143 137 133 128 126 121 118 115 108 90 41 359 342 337 326 320 311 307 301
269 259 253 249 234 222 209 205 204 203 187 168 186 188 187 173 141 111 137 151 153 146 143 141 137 133 136 136 131 126 119 107 82 51 8 350 336 330 322 316 311 309
284 268 257 247 234 220 214 209 203 198 191 190 193 185 151 127 137 151 169 160 155 149 140 134 130 127 121 115 104 120 121 104 101 87 46 351 329 325 323 321 316 309
291 280 265 250 238 227 219 214 207 198 192 185 172 158 158 162 160 160 158 158 152 146 140 132 129 124 134 130 121 112 114 113 108 114 10 313 319 327 325 326 321 316
299 287 273 261 235 228 222 216 199 186 185 177 164 165 165 150 146 148 143 139 138 138 136 140 134 130 146 143 143 146 138 130 144 154 281 307 326 326 328 326 322 317
302 284 265 256 242 226 219 206 193 184 178 169 170 159 141 155 156 144 144 139 141 146 149 149 143 150 157 154 152 151 152 201 164 189 268 306 320 319 321 321 320 317
302 293 275 259 251 223 211 202 187 183 175 170 160 160 165 157 149 149 146 147 150 155 154 154 149 162 162 159 152 159 156 197 184 205 255 282 298 309 307 312 314 313
297 294 283 275 254 222 204 190 180 171 166 164 165 169 164 155 150 141 140 142 147 145 148 153 155 162 165 161 161 168 161 202 196 207 240 262 270 284 287 293 301 301
295 290 281 269 251 212 193 183 175 171 171 164 157 150 135 130 129 137 147 154 154 150 152 164 166 171 169 169 168 171 162 206 199 228 249 265 279 283 287 291 293 297
291 284 274 261 237 200 190 182 176 176 163 159 155 156 152 154 152 152 152 152 156 161 164 165 164 181 178 177 176 162 177 218 219 248 259 268 274 283 287 283 279 286
283 280 269 254 233 204 193 186 175 165 166 171 166 162 164 159 145 141 143 147 151 163 171 168 175 172 183 187 181 175 201 232 258 267 273 279 282 276 277 280 274 254
276 274 264 250 232 212 194 177 173 167 153 149 156 126 78 76 112 129 131 143 162 165 165 164 171 182 188 191 190 184 191 240 263 275 278 283 292 294 290 288 287 276
266 263 256 246 231 208 185 174 135 128 151 157 154 150 145 151 149 131 139 155 153 160 179 194 178 181 182 194 200 199 202 245 272 281 287 294 298 301 300 296 292 290